period_start,C,m1,H,J0,J1,J2,J3,J4,J5,JA,JB,JC,JD,JJ,JK,JN,#
2017-12-10 00:00:19,0.01,1.84,0.00,20.19,23.67,26.77,14.41,43.16,1047.38,2041.96,2788.75,2647.92,2994.00,600.03,619.98,41.88,0000 0000 0000 0000 000000
2017-12-10 00:05:21,0.02,1.84,0.00,20.19,23.67,26.74,14.45,43.34,1047.38,2041.96,2788.09,2647.52,2994.00,600.08,620.06,41.93,0000 0000 0000 0000 000000
2017-12-10 00:10:22,0.01,1.84,0.00,20.19,23.67,26.71,14.41,43.31,1047.38,2041.94,2788.01,2647.16,2993.99,599.83,619.78,41.98,0000 0000 0000 0000 000000
2017-12-10 00:15:23,0.00,1.84,0.00,20.19,23.67,26.69,14.40,43.22,1047.38,2041.96,2788.00,2647.04,2993.95,599.85,619.82,42.03,0000 0000 0000 0000 000000
2017-12-10 00:20:24,0.01,1.85,0.00,20.19,23.67,26.72,14.41,43.33,1047.38,2041.96,2787.89,2647.01,2993.50,599.75,619.70,42.08,0000 0000 0000 0000 000000
2017-12-10 00:25:25,0.01,1.85,0.00,20.19,23.66,26.73,14.44,43.27,1047.38,2041.95,2787.39,2647.00,2993.15,600.03,619.95,42.13,0000 0000 0000 0000 000000
2017-12-10 00:30:27,0.00,1.85,0.00,20.19,23.66,26.77,14.35,43.34,1047.37,2041.96,2787.02,2647.00,2993.02,599.84,619.85,42.18,0000 0000 0000 0000 000000
2017-12-10 00:35:28,0.00,1.85,0.00,20.19,23.65,26.75,14.40,43.31,1047.36,2041.96,2786.98,2646.98,2993.00,600.25,620.19,42.23,0000 0000 0000 0000 000000
2017-12-10 00:40:29,0.00,1.85,0.00,20.19,23.65,26.70,14.32,43.35,1047.31,2041.93,2786.84,2646.96,2992.99,599.66,619.66,42.28,0000 0000 0000 0000 000000
2017-12-10 00:45:30,0.01,1.85,0.00,20.18,23.65,26.76,14.49,43.33,1047.09,2041.97,2786.27,2646.91,2992.98,600.66,620.49,42.33,0000 0000 0000 0000 000000
2017-12-10 00:50:31,0.02,1.85,0.00,20.19,23.65,26.73,14.41,43.23,1046.99,2041.97,2786.02,2646.56,2992.84,600.28,619.95,42.38,0000 0000 0000 0000 000000
2017-12-10 00:55:33,0.02,1.85,0.00,20.19,23.65,26.76,14.50,43.40,1046.94,2041.98,2786.00,2646.27,2992.49,600.03,619.79,42.43,0000 0000 0000 0000 000000
2017-12-10 01:00:34,0.01,1.85,0.00,20.19,23.65,26.71,14.41,43.35,1046.90,2041.97,2785.98,2646.06,2992.16,600.24,619.75,42.48,0000 0000 0000 0000 000000
2017-12-10 01:05:35,0.00,1.85,0.00,20.19,23.65,26.72,14.47,43.35,1046.90,2041.97,2785.92,2646.03,2992.01,600.27,619.95,42.53,0000 0000 0000 0000 000000
2017-12-10 01:10:37,0.01,1.85,0.00,20.19,23.65,26.76,14.46,43.32,1046.90,2041.97,2785.18,2646.00,2992.00,600.28,619.97,42.58,0000 0000 0000 0000 000000
2017-12-10 01:15:38,0.00,1.85,0.00,20.20,23.65,26.72,14.40,43.38,1046.90,2041.97,2785.01,2646.00,2992.00,600.12,619.64,42.63,0000 0000 0000 0000 000000
2017-12-10 01:20:39,0.00,1.85,0.00,20.19,23.65,26.74,14.38,43.38,1046.90,2041.97,2784.89,2645.97,2991.97,600.04,619.62,42.69,0000 0000 0000 0000 000000
2017-12-10 01:25:40,0.03,1.85,0.00,20.19,23.65,26.73,14.37,43.42,1046.91,2041.96,2784.40,2645.81,2991.60,600.22,619.90,42.74,0000 0000 0000 0000 000000
2017-12-10 01:30:41,0.03,1.85,0.00,20.20,23.65,26.74,14.41,43.37,1046.90,2041.97,2784.00,2645.25,2991.05,599.87,619.43,42.79,0000 0000 0000 0000 000000
2017-12-10 01:35:42,0.00,1.86,0.00,20.21,23.65,26.75,14.41,43.43,1046.90,2041.97,2783.98,2645.06,2991.00,599.95,619.64,42.84,0000 0000 0000 0000 000000
2017-12-10 01:40:43,0.01,1.86,0.00,20.21,23.65,26.74,14.31,43.38,1046.89,2041.98,2783.65,2645.00,2990.99,599.38,619.03,42.89,0000 0000 0000 0000 000000
2017-12-10 01:45:44,0.02,1.86,0.00,20.22,23.65,26.71,14.42,43.42,1046.89,2041.98,2783.03,2644.99,2990.76,600.27,619.87,42.94,0000 0000 0000 0000 000000
2017-12-10 01:50:45,0.01,1.86,0.00,20.22,23.66,26.73,14.46,43.37,1046.89,2041.97,2782.86,2644.94,2990.20,600.25,619.85,42.99,0000 0000 0000 0000 000000
2017-12-10 01:55:47,0.04,1.86,0.00,20.22,23.66,26.72,14.46,43.37,1046.89,2041.95,2782.08,2644.29,2990.00,600.30,619.97,43.04,0000 0000 0000 0000 000000
2017-12-10 02:00:48,0.01,1.86,0.00,20.22,23.66,26.75,14.41,43.28,1046.88,2041.98,2781.96,2644.02,2989.96,600.27,619.72,43.09,0000 0000 0000 0000 000000
2017-12-10 02:05:49,0.02,1.86,0.00,20.22,23.67,26.73,14.44,43.30,1046.87,2041.95,2781.37,2644.00,2989.57,599.89,619.47,43.14,0000 0000 0000 0000 000000
2017-12-10 02:10:51,0.01,1.86,0.00,20.22,23.67,26.69,14.44,43.27,1046.87,2041.94,2781.01,2644.00,2989.05,600.12,619.77,43.19,0000 0000 0000 0000 000000
2017-12-10 02:15:52,0.00,1.86,0.00,20.22,23.67,26.75,14.42,43.35,1046.86,2041.93,2781.00,2643.98,2989.01,600.23,619.75,43.24,0000 0000 0000 0000 000000
2017-12-10 02:20:53,0.00,1.86,0.00,20.22,23.67,26.78,14.39,43.20,1046.84,2041.95,2780.95,2643.94,2989.00,599.68,619.31,43.29,0000 0000 0000 0000 000000
2017-12-10 02:25:54,0.02,1.86,0.00,20.22,23.67,26.73,14.44,43.30,1046.88,2041.96,2780.50,2643.63,2989.00,599.62,619.11,43.34,0000 0000 0000 0000 000000
2017-12-10 02:30:56,0.02,1.86,0.00,20.22,23.67,26.77,14.38,43.25,1046.89,2041.97,2780.04,2643.27,2988.96,599.92,619.66,43.39,0000 0000 0000 0000 000000
2017-12-10 02:35:57,0.01,1.86,0.00,20.22,23.67,26.70,14.44,43.25,1046.89,2041.97,2780.01,2643.05,2988.61,599.99,619.46,43.44,0000 0000 0000 0000 000000
2017-12-10 02:40:58,0.00,1.87,0.00,20.23,23.67,26.73,14.40,43.27,1046.89,2041.96,2779.98,2643.00,2988.11,600.01,619.56,43.49,0000 0000 0000 0000 000000
2017-12-10 02:45:59,0.01,1.87,0.00,20.24,23.67,26.73,14.45,43.23,1046.89,2041.92,2779.67,2643.00,2988.01,600.33,619.89,43.54,0000 0000 0000 0000 000000
2017-12-10 02:51:01,-0.01,1.87,0.00,20.24,23.67,26.78,14.43,43.21,1046.89,2041.79,2779.04,2642.97,2987.99,600.05,619.61,43.59,0000 0000 0000 0000 000000
2017-12-10 02:56:02,0.01,1.87,0.00,20.24,23.67,26.80,14.41,43.33,1046.89,2041.73,2779.00,2642.94,2987.97,599.94,619.48,43.65,0000 0000 0000 0000 000000
2017-12-10 03:01:03,0.03,1.87,0.00,20.24,23.69,26.75,14.48,43.39,1046.89,2041.86,2778.91,2642.58,2987.65,600.48,619.92,43.70,0000 0000 0000 0000 000000
2017-12-10 03:06:05,0.02,1.87,0.00,20.24,23.69,26.79,14.42,43.32,1046.89,2041.82,2778.15,2642.12,2987.12,600.06,619.56,43.75,0000 0000 0000 0000 000000
2017-12-10 03:11:06,0.01,1.87,0.00,20.24,23.70,26.74,14.37,43.33,1046.89,2041.82,2778.00,2642.00,2987.01,599.70,619.32,43.80,0000 0000 0000 0000 000000
2017-12-10 03:16:07,-0.00,1.87,0.00,20.24,23.70,26.73,14.37,43.25,1046.89,2041.73,2777.94,2642.00,2986.99,600.13,619.58,43.85,0000 0000 0000 0000 000000
2017-12-10 03:21:08,-0.01,1.87,0.00,20.25,23.70,26.77,14.47,43.41,1046.89,2041.51,2777.21,2641.98,2986.92,600.10,619.57,43.90,0000 0000 0000 0000 000000
2017-12-10 03:26:10,0.00,1.87,0.00,20.25,23.70,26.79,14.41,43.41,1046.89,2041.55,2777.01,2641.91,2986.37,599.90,619.50,43.95,0000 0000 0000 0000 000000
2017-12-10 03:31:11,0.02,1.87,0.00,20.26,23.72,26.76,14.46,43.41,1046.89,2041.48,2777.00,2641.81,2986.05,600.21,619.64,44.00,0000 0000 0000 0000 000000
2017-12-10 03:36:12,0.00,1.87,0.00,20.26,23.72,26.75,14.44,43.42,1046.89,2041.31,2776.96,2641.22,2986.00,599.94,619.42,44.05,0000 0000 0000 0000 000000
2017-12-10 03:41:13,0.01,1.87,0.00,20.27,23.72,26.77,14.47,43.38,1046.89,2041.14,2776.35,2641.02,2985.97,600.33,619.88,44.10,0000 0000 0000 0000 000000
2017-12-10 03:46:15,0.02,1.87,0.00,20.27,23.72,26.77,14.37,43.29,1046.89,2041.14,2776.00,2641.00,2985.38,599.85,619.36,44.15,0000 0000 0000 0000 000000
2017-12-10 03:51:16,0.02,1.87,0.00,20.27,23.72,26.74,14.39,43.21,1046.87,2041.09,2775.37,2640.83,2985.01,600.10,619.64,44.20,0000 0000 0000 0000 000000
2017-12-10 03:56:17,0.02,1.87,0.00,20.27,23.72,26.76,14.40,43.29,1046.88,2041.06,2774.99,2640.13,2984.95,600.24,619.70,44.25,0000 0000 0000 0000 000000
2017-12-10 04:01:19,0.03,1.88,0.00,20.27,23.72,26.77,14.37,43.19,1046.88,2041.04,2774.38,2640.00,2984.30,599.98,619.52,44.30,0000 0000 0000 0000 000000
2017-12-10 04:06:20,0.01,1.88,0.00,20.27,23.73,26.76,14.35,43.40,1046.86,2041.05,2774.00,2639.97,2984.01,599.90,619.41,44.35,0000 0000 0000 0000 000000
2017-12-10 04:11:21,0.04,1.88,0.00,20.27,23.73,26.79,14.44,43.27,1046.88,2041.04,2773.28,2639.53,2983.93,600.21,619.74,44.40,0000 0000 0000 0000 000000
2017-12-10 04:16:23,0.02,1.88,0.00,20.27,23.73,26.80,14.44,43.24,1046.89,2041.03,2772.98,2639.04,2983.28,600.02,619.54,44.45,0000 0000 0000 0000 000000
2017-12-10 04:21:24,0.02,1.88,0.00,20.28,23.74,26.76,14.35,43.15,1046.89,2041.02,2772.26,2639.00,2983.00,599.90,619.34,44.50,0000 0000 0000 0000 000000
2017-12-10 04:26:25,0.00,1.88,0.00,20.27,23.74,26.81,14.44,43.22,1046.89,2041.03,2772.00,2638.95,2982.99,599.96,619.55,44.56,0000 0000 0000 0000 000000
2017-12-10 04:31:26,0.02,1.88,0.00,20.27,23.74,26.82,14.44,43.24,1046.89,2041.02,2771.90,2638.75,2982.80,600.15,619.65,44.61,0000 0000 0000 0000 000000
2017-12-10 04:36:28,0.03,1.88,0.00,20.27,23.74,26.82,14.42,43.23,1046.89,2041.02,2771.32,2638.32,2982.26,600.16,619.63,44.66,0000 0000 0000 0000 000000
2017-12-10 04:41:29,0.02,1.88,0.00,20.27,23.75,26.84,14.36,43.18,1046.89,2041.04,2771.02,2638.06,2982.04,600.08,619.48,44.71,0000 0000 0000 0000 000000
2017-12-10 04:46:30,0.00,1.88,0.00,20.28,23.75,26.83,14.43,43.27,1046.89,2041.01,2770.86,2638.00,2981.99,600.32,619.99,44.76,0000 0000 0000 0000 000000
2017-12-10 04:51:31,0.03,1.89,0.00,20.29,23.75,26.79,14.43,43.31,1046.89,2041.01,2770.08,2637.94,2981.52,599.93,619.30,44.81,0000 0000 0000 0000 000000
2017-12-10 04:56:33,0.05,1.89,0.00,20.29,23.75,26.76,14.44,43.28,1046.89,2041.03,2769.70,2637.25,2981.02,600.30,619.71,44.86,0000 0000 0000 0000 000000
2017-12-10 05:01:34,0.01,1.89,0.00,20.29,23.75,26.81,14.40,43.23,1046.89,2041.01,2769.02,2637.00,2980.87,600.01,619.47,44.91,0000 0000 0000 0000 000000
2017-12-10 05:06:35,0.03,1.89,0.00,20.29,23.75,26.84,14.44,43.17,1046.89,2041.01,2768.58,2636.96,2980.18,600.27,619.80,44.96,0000 0000 0000 0000 000000
2017-12-10 05:11:36,0.03,1.89,0.00,20.29,23.75,26.78,14.49,43.21,1046.89,2041.00,2768.00,2636.25,2980.00,600.14,619.71,45.01,0000 0000 0000 0000 000000
2017-12-10 05:16:37,0.02,1.89,0.00,20.29,23.75,26.81,14.45,43.25,1046.89,2041.00,2767.36,2636.01,2979.73,600.20,619.65,45.06,0000 0000 0000 0000 000000
2017-12-10 05:21:39,0.01,1.89,0.00,20.30,23.75,26.79,14.46,43.24,1046.89,2041.00,2767.00,2635.99,2979.06,599.87,619.41,45.11,0000 0000 0000 0000 000000
2017-12-10 05:26:40,0.02,1.90,0.00,20.31,23.75,26.79,14.43,43.31,1046.89,2041.00,2766.46,2635.75,2979.00,600.16,619.48,45.16,0000 0000 0000 0000 000000
2017-12-10 05:31:41,0.02,1.90,0.00,20.31,23.76,26.80,14.32,43.23,1046.89,2041.01,2766.01,2635.18,2978.90,599.78,619.13,45.21,0000 0000 0000 0000 000000
2017-12-10 05:36:42,0.02,1.90,0.00,20.31,23.76,26.78,14.38,43.27,1046.89,2041.00,2765.84,2635.01,2978.24,599.94,619.35,45.26,0000 0000 0000 0000 000000
2017-12-10 05:41:44,0.01,1.90,0.00,20.32,23.77,26.82,14.53,43.35,1046.89,2041.01,2765.37,2635.00,2978.04,600.36,619.74,45.31,0000 0000 0000 0000 000000
2017-12-10 05:46:45,0.00,1.90,0.00,20.32,23.77,26.85,14.41,43.45,1046.89,2041.00,2765.02,2634.99,2978.00,599.88,619.43,45.36,0000 0000 0000 0000 000000
2017-12-10 05:51:46,0.00,1.90,0.00,20.33,23.77,26.83,14.31,43.34,1046.89,2041.00,2764.96,2634.87,2977.98,599.72,619.09,45.41,0000 0000 0000 0000 000000
2017-12-10 05:56:47,0.04,1.90,0.00,20.32,23.77,26.80,14.44,43.33,1046.89,2041.00,2764.44,2634.25,2977.64,599.79,619.17,45.46,0000 0000 0000 0000 000000
2017-12-10 06:01:49,0.01,1.90,0.00,20.33,23.77,26.80,14.38,43.36,1046.89,2041.01,2764.03,2634.05,2977.12,599.64,618.99,45.51,0000 0000 0000 0000 000000
2017-12-10 06:06:50,0.00,1.90,0.00,20.34,23.77,26.83,14.34,43.27,1046.89,2041.01,2763.99,2634.00,2977.03,599.83,619.13,45.56,0000 0000 0000 0000 000000
2017-12-10 06:11:51,0.01,1.90,0.00,20.34,23.77,26.80,14.43,43.27,1046.88,2041.00,2763.59,2633.99,2977.00,600.04,619.30,45.62,0000 0000 0000 0000 000000
2017-12-10 06:16:52,0.00,1.90,0.00,20.34,23.78,26.90,14.41,43.38,1046.89,2041.00,2763.04,2633.95,2976.94,599.90,619.22,45.67,0000 0000 0000 0000 000000
2017-12-10 06:21:53,0.01,1.90,0.00,20.34,23.79,26.86,14.41,43.35,1046.89,2041.00,2763.00,2633.76,2976.64,599.73,619.12,45.72,0000 0000 0000 0000 000000
2017-12-10 06:26:55,0.02,1.91,0.00,20.34,23.80,26.88,14.44,43.39,1046.89,2041.00,2762.98,2633.26,2976.13,600.19,619.58,45.77,0000 0000 0000 0000 000000
2017-12-10 06:31:56,0.01,1.91,0.00,20.36,23.80,26.83,14.43,43.42,1046.89,2041.00,2762.67,2633.05,2976.01,600.06,619.38,45.82,0000 0000 0000 0000 000000
2017-12-10 06:36:57,0.01,1.91,0.00,20.36,23.80,26.86,14.41,43.45,1046.89,2041.00,2762.05,2633.00,2976.00,600.22,619.51,45.87,0000 0000 0000 0000 000000
2017-12-10 06:41:59,0.00,1.91,0.00,20.37,23.81,26.87,14.40,43.41,1046.89,2041.00,2761.99,2632.99,2975.96,600.16,619.38,45.92,0000 0000 0000 0000 000000
2017-12-10 06:47:00,0.00,1.91,0.00,20.37,23.82,26.85,14.45,43.38,1046.89,2041.00,2761.96,2632.96,2975.69,600.03,619.30,45.97,0000 0000 0000 0000 000000
2017-12-10 06:52:01,0.02,1.91,0.00,20.37,23.82,26.87,14.45,43.35,1046.89,2041.00,2761.49,2632.88,2975.12,600.30,619.55,46.02,0000 0000 0000 0000 000000
2017-12-10 06:57:02,0.02,1.91,0.00,20.38,23.82,26.88,14.40,43.30,1046.89,2041.00,2761.07,2632.50,2975.01,599.77,619.14,46.07,0000 0000 0000 0000 000000
2017-12-10 07:02:04,0.00,1.91,0.00,20.39,23.82,26.86,14.41,43.35,1046.89,2041.00,2761.00,2632.06,2975.00,599.93,619.24,46.12,0000 0000 0000 0000 000000
2017-12-10 07:07:05,0.00,1.91,0.00,20.39,23.84,26.88,14.44,43.37,1046.89,2041.00,2760.97,2632.00,2974.96,600.19,619.37,46.17,0000 0000 0000 0000 000000
2017-12-10 07:12:06,0.02,1.91,0.00,20.39,23.85,26.88,14.34,43.24,1046.89,2041.00,2760.71,2632.00,2974.56,600.26,619.38,46.22,0000 0000 0000 0000 000000
2017-12-10 07:17:08,0.01,1.91,0.00,20.39,23.85,26.86,14.44,43.30,1046.89,2041.00,2760.04,2631.98,2974.03,600.58,619.70,46.27,0000 0000 0000 0000 000000
2017-12-10 07:22:09,0.00,1.91,0.00,20.39,23.85,26.85,14.41,43.37,1046.89,2041.00,2759.99,2631.83,2974.00,600.25,619.50,46.32,0000 0000 0000 0000 000000
2017-12-10 07:27:10,0.01,1.91,0.00,20.41,23.86,26.90,14.42,43.23,1046.89,2040.97,2759.95,2631.39,2973.98,600.05,619.26,46.37,0000 0000 0000 0000 000000
2017-12-10 07:32:11,0.03,1.92,0.00,20.41,23.87,26.90,14.46,43.27,1046.89,2040.99,2759.26,2631.06,2973.73,600.41,619.50,46.42,0000 0000 0000 0000 000000
2017-12-10 07:37:12,0.01,1.92,0.00,20.42,23.87,26.94,14.43,43.23,1046.89,2040.98,2759.01,2631.00,2973.31,600.01,619.28,46.47,0000 0000 0000 0000 000000
2017-12-10 07:42:14,0.00,1.92,0.00,20.42,23.87,26.89,14.41,43.33,1046.89,2040.98,2758.99,2631.00,2973.04,600.08,619.42,46.53,0000 0000 0000 0000 000000
2017-12-10 07:47:15,0.02,1.92,0.00,20.42,23.88,26.92,14.46,43.45,1046.89,2040.98,2758.49,2630.98,2973.00,600.32,619.36,46.58,0000 0000 0000 0000 000000
2017-12-10 07:52:16,0.03,1.92,0.00,20.42,23.89,26.91,14.43,43.35,1046.90,2040.99,2757.98,2630.50,2972.86,600.24,619.39,46.63,0000 0000 0000 0000 000000
2017-12-10 07:57:18,0.03,1.92,0.00,20.43,23.90,26.87,14.44,43.38,1046.89,2040.98,2757.20,2630.01,2972.08,599.92,618.95,46.68,0000 0000 0000 0000 000000
2017-12-10 08:02:19,0.07,1.92,0.00,20.44,23.90,26.87,14.42,43.41,1046.90,2040.98,2756.10,2629.46,2971.55,599.97,619.11,46.73,0000 0000 0000 0000 000000
2017-12-10 08:07:20,0.08,1.93,0.00,20.44,23.90,26.87,14.35,43.26,1046.90,2040.98,2754.57,2628.46,2970.46,599.72,618.81,46.78,0000 0000 0000 0000 000000
2017-12-10 08:12:22,0.06,1.93,0.00,20.44,23.90,26.91,14.39,43.27,1046.90,2040.97,2753.11,2627.62,2969.44,600.09,619.18,46.83,0000 0000 0000 0000 000000
2017-12-10 08:17:23,0.03,1.94,0.00,20.44,23.90,26.94,14.45,43.36,1046.90,2040.96,2752.02,2627.01,2968.92,599.78,618.98,46.88,0000 0000 0000 0000 000000
2017-12-10 08:22:24,0.06,1.94,0.00,20.44,23.91,26.96,14.48,43.27,1046.92,2040.96,2751.10,2626.45,2968.09,600.51,619.68,46.93,0000 0000 0000 0000 000000
2017-12-10 08:27:26,0.02,1.94,0.00,20.44,23.92,26.91,14.41,43.27,1046.92,2040.96,2750.30,2626.01,2967.92,599.83,619.04,46.98,0000 0000 0000 0000 000000
2017-12-10 08:32:27,0.03,1.94,0.00,20.45,23.92,26.95,14.44,43.38,1046.93,2040.98,2749.82,2625.89,2967.17,599.92,619.04,47.03,0000 0000 0000 0000 000000
2017-12-10 08:37:29,0.04,1.94,0.00,20.45,23.92,26.95,14.41,43.39,1046.97,2040.97,2749.06,2625.16,2966.98,599.85,619.01,47.08,0000 0000 0000 0000 000000
2017-12-10 08:42:30,0.03,1.94,0.00,20.47,23.92,26.92,14.35,43.38,1047.03,2040.98,2748.57,2625.00,2966.56,599.88,619.04,47.13,0000 0000 0000 0000 000000
2017-12-10 08:47:31,0.01,1.95,0.00,20.47,23.92,26.97,14.39,43.33,1047.05,2040.98,2748.02,2624.98,2966.04,600.08,619.19,47.18,0000 0000 0000 0000 000000
2017-12-10 08:52:32,0.03,1.95,0.00,20.47,23.92,26.98,14.40,43.38,1046.97,2040.96,2747.70,2624.56,2966.00,599.76,618.89,47.23,0000 0000 0000 0000 000000
2017-12-10 08:57:34,0.02,1.95,0.00,20.47,23.92,27.01,14.39,43.29,1046.99,2040.96,2747.02,2624.02,2965.67,600.11,619.08,47.28,0000 0000 0000 0000 000000
2017-12-10 09:02:35,0.01,1.95,0.00,20.47,23.93,26.99,14.31,43.30,1047.07,2040.95,2746.90,2624.00,2965.04,599.67,618.69,47.33,0000 0000 0000 0000 000000
2017-12-10 09:07:36,0.02,1.95,0.00,20.47,23.94,27.02,14.38,43.31,1047.09,2040.96,2746.15,2623.97,2965.00,600.05,619.27,47.38,0000 0000 0000 0000 000000
2017-12-10 09:12:38,0.02,1.95,0.00,20.49,23.94,27.03,14.39,43.42,1047.15,2040.94,2746.00,2623.50,2964.97,600.11,619.26,47.44,0000 0000 0000 0000 000000
2017-12-10 09:17:39,0.02,1.95,0.00,20.49,23.95,27.03,14.35,43.31,1047.24,2040.93,2745.78,2623.08,2964.54,599.86,618.95,47.49,0000 0000 0000 0000 000000
2017-12-10 09:22:40,0.02,1.95,0.00,20.49,23.95,27.00,14.40,43.38,1047.21,2040.91,2745.06,2623.00,2964.03,600.03,619.33,47.54,0000 0000 0000 0000 000000
2017-12-10 09:27:42,0.00,1.95,0.00,20.49,23.95,27.02,14.44,43.42,1047.34,2040.96,2745.00,2623.00,2964.00,600.36,619.72,47.59,0000 0000 0000 0000 000000
2017-12-10 09:32:43,0.00,1.95,0.00,20.50,23.95,27.02,14.42,43.35,1047.37,2040.93,2744.83,2623.00,2963.98,600.00,619.40,47.64,0000 0000 0000 0000 000000
2017-12-10 09:37:44,0.01,1.95,0.00,20.51,23.95,26.99,14.50,43.44,1047.38,2040.90,2744.21,2622.99,2963.80,600.10,619.38,47.69,0000 0000 0000 0000 000000
2017-12-10 09:42:45,0.00,1.96,0.00,20.52,23.95,27.05,14.40,43.50,1047.38,2040.85,2744.01,2622.89,2963.23,599.98,619.32,47.74,0000 0000 0000 0000 000000
2017-12-10 09:47:47,0.01,1.96,0.00,20.52,23.95,27.01,14.40,43.39,1047.38,2040.83,2744.00,2622.58,2963.02,599.65,619.05,47.79,0000 0000 0000 0000 000000
2017-12-10 09:52:48,0.01,1.96,0.00,20.53,23.95,27.01,14.41,43.44,1047.38,2040.84,2744.00,2622.25,2963.00,599.74,619.06,47.84,0000 0000 0000 0000 000000
2017-12-10 09:57:49,-0.01,1.96,0.00,20.54,23.96,27.00,14.40,43.31,1047.38,2040.81,2743.94,2622.05,2963.00,599.96,619.25,47.89,0000 0000 0000 0000 000000
2017-12-10 10:02:50,0.01,1.96,0.00,20.54,23.96,27.03,14.37,43.37,1047.38,2040.81,2743.66,2622.01,2963.00,599.56,618.72,47.94,0000 0000 0000 0000 000000
2017-12-10 10:07:52,0.00,1.96,0.00,20.54,23.97,27.04,14.45,43.34,1047.38,2040.80,2743.20,2622.00,2962.98,600.28,619.28,47.99,0000 0000 0000 0000 000000
2017-12-10 10:12:53,0.02,1.96,0.00,20.54,23.97,27.06,14.44,43.31,1047.37,2040.80,2743.01,2621.99,2962.82,600.10,619.31,48.04,0000 0000 0000 0000 000000
2017-12-10 10:17:54,-0.02,1.96,0.00,20.57,23.97,27.02,14.36,43.28,1047.36,2040.70,2743.00,2621.99,2962.18,600.10,619.27,48.09,0000 0000 0000 0000 000000
2017-12-10 10:22:55,-0.01,1.96,0.00,20.56,23.97,27.02,14.30,43.28,1047.34,2040.47,2742.97,2621.96,2962.02,599.37,618.55,48.14,0000 0000 0000 0000 000000
2017-12-10 10:27:57,0.03,1.96,0.00,20.57,23.97,27.01,14.42,43.43,1047.36,2040.62,2742.77,2621.79,2962.00,600.18,619.14,48.19,0000 0000 0000 0000 000000
2017-12-10 10:32:58,0.02,1.96,0.00,20.57,23.97,27.03,14.44,43.39,1047.38,2040.49,2742.16,2621.24,2962.00,600.02,619.17,48.24,0000 0000 0000 0000 000000
2017-12-10 10:37:59,-0.00,1.96,0.00,20.57,23.97,27.05,14.41,43.33,1047.38,2040.41,2742.01,2621.05,2962.00,600.04,619.20,48.29,0000 0000 0000 0000 000000
2017-12-10 10:43:00,0.01,1.96,0.00,20.58,23.98,27.05,14.45,43.46,1047.38,2040.54,2742.00,2621.03,2961.96,599.98,619.16,48.34,0000 0000 0000 0000 000000
2017-12-10 10:48:01,-0.01,1.96,0.00,20.59,23.99,27.07,14.39,43.30,1047.38,2040.42,2741.99,2621.00,2961.53,600.11,619.07,48.40,0000 0000 0000 0000 000000
2017-12-10 10:53:02,-0.00,1.96,0.00,20.59,23.99,27.06,14.36,43.25,1047.38,2040.27,2741.88,2621.00,2961.05,599.69,618.78,48.45,0000 0000 0000 0000 000000
2017-12-10 10:58:03,0.01,1.96,0.00,20.60,24.00,27.04,14.49,43.31,1047.38,2040.26,2741.40,2620.98,2961.01,600.39,619.49,48.50,0000 0000 0000 0000 000000
2017-12-10 11:03:04,0.00,1.96,0.00,20.59,24.00,27.03,14.37,43.29,1047.38,2040.10,2741.03,2620.90,2960.99,599.94,619.04,48.55,0000 0000 0000 0000 000000
2017-12-10 11:08:05,0.01,1.96,0.00,20.62,24.00,27.05,14.32,43.23,1047.38,2040.09,2741.00,2620.58,2960.99,599.70,618.81,48.60,0000 0000 0000 0000 000000
2017-12-10 11:13:07,0.01,1.96,0.00,20.62,24.00,27.04,14.38,43.33,1047.38,2040.06,2740.97,2620.12,2960.85,600.09,619.07,48.65,0000 0000 0000 0000 000000
2017-12-10 11:18:08,0.01,1.96,0.00,20.61,24.00,27.08,14.44,43.42,1047.38,2040.05,2740.93,2620.03,2960.42,600.04,618.96,48.70,0000 0000 0000 0000 000000
2017-12-10 11:23:09,0.01,1.96,0.00,20.62,24.00,27.10,14.44,43.32,1047.38,2040.04,2740.57,2620.01,2960.08,600.04,619.07,48.75,0000 0000 0000 0000 000000
2017-12-10 11:28:10,0.01,1.96,0.00,20.62,24.00,27.10,14.36,43.31,1047.38,2040.03,2740.04,2620.00,2960.00,599.94,619.05,48.80,0000 0000 0000 0000 000000
2017-12-10 11:33:11,0.00,1.96,0.00,20.62,24.01,27.08,14.39,43.22,1047.38,2040.03,2740.01,2620.00,2960.00,599.91,618.97,48.85,0000 0000 0000 0000 000000
2017-12-10 11:38:13,0.00,1.96,0.00,20.62,24.02,27.14,14.48,43.40,1047.38,2040.02,2740.00,2619.99,2959.99,600.08,619.20,48.90,0000 0000 0000 0000 000000
2017-12-10 11:43:14,0.00,1.96,0.00,20.62,24.02,27.10,14.41,43.30,1047.38,2040.01,2739.98,2619.96,2959.96,600.07,619.14,48.95,0000 0000 0000 0000 000000
2017-12-10 11:48:15,0.01,1.96,0.00,20.63,24.02,27.07,14.42,43.25,1047.38,2040.00,2739.89,2619.82,2959.78,600.01,619.06,49.00,0000 0000 0000 0000 000000
2017-12-10 11:53:17,0.05,1.97,0.00,20.64,24.02,27.10,14.44,43.34,1047.38,2040.01,2739.16,2619.16,2959.09,600.12,619.10,49.05,0000 0000 0000 0000 000000
2017-12-10 11:58:18,0.00,1.97,0.00,20.64,24.02,27.09,14.39,43.34,1047.38,2040.00,2739.01,2619.04,2959.01,599.90,618.93,49.10,0000 0000 0000 0000 000000
2017-12-10 12:03:19,0.00,1.97,0.00,20.64,24.02,27.11,14.37,43.35,1047.38,2040.00,2739.00,2619.00,2959.00,599.87,618.86,49.15,0000 0000 0000 0000 000000
2017-12-10 12:08:21,0.00,1.97,0.00,20.64,24.02,27.11,14.43,43.38,1047.38,2040.00,2738.99,2619.00,2959.00,600.03,619.00,49.20,0000 0000 0000 0000 000000
2017-12-10 12:13:22,0.01,1.97,0.00,20.64,24.02,27.14,14.39,43.44,1047.36,2040.00,2738.84,2618.99,2958.95,599.93,618.74,49.26,0000 0000 0000 0000 000000
2017-12-10 12:18:23,0.02,1.97,0.00,20.65,24.02,27.14,14.41,43.38,1047.34,2040.00,2738.22,2618.97,2958.56,600.18,619.11,49.31,0000 0000 0000 0000 000000
2017-12-10 12:23:24,0.01,1.97,0.00,20.66,24.02,27.09,14.44,43.33,1047.13,2040.00,2738.01,2618.91,2958.12,599.96,618.83,49.36,0000 0000 0000 0000 000000
2017-12-10 12:28:26,0.01,1.97,0.00,20.67,24.02,27.12,14.43,43.36,1047.11,2040.00,2738.00,2618.58,2958.02,600.29,618.89,49.41,0000 0000 0000 0000 000000
2017-12-10 12:33:27,0.01,1.97,0.00,20.67,24.02,27.11,14.45,43.33,1047.16,2040.00,2737.99,2618.19,2958.00,599.86,618.73,49.46,0000 0000 0000 0000 000000
2017-12-10 12:38:28,0.00,1.97,0.00,20.67,24.03,27.11,14.43,43.29,1047.10,2040.00,2737.92,2618.02,2957.97,600.15,618.91,49.51,0000 0000 0000 0000 000000
2017-12-10 12:43:30,0.01,1.97,0.00,20.67,24.03,27.12,14.37,43.30,1047.00,2040.00,2737.27,2618.00,2957.95,600.08,618.88,49.56,0000 0000 0000 0000 000000
2017-12-10 12:48:31,0.00,1.97,0.00,20.67,24.04,27.13,14.39,43.32,1047.02,2040.00,2737.03,2618.00,2957.75,599.97,618.68,49.61,0000 0000 0000 0000 000000
2017-12-10 12:53:33,0.01,1.97,0.00,20.67,24.04,27.14,14.40,43.33,1047.15,2040.00,2737.00,2617.97,2957.16,600.06,618.84,49.66,0000 0000 0000 0000 000000